Weather History for Waukegan, IL

Change the Weather History Date:

Wednesday, November 21, 2012

  Actual Average Record
Temperature  
Mean Temperature 44 °F -  
Max Temperature 58 °F 44 °F 60 °F (2010)
Min Temperature 30 °F 29 °F 7 °F (2014)
Degree Days  
Heating Degree Days 21 29  
Month to date heating degree days 516 499  
Since 1 July heating degree days 1167 1105  
Cooling Degree Days 0 0  
Month to date cooling degree days 0 0  
Year to date cooling degree days 983 564  
Moisture  
Dew Point 38 °F    
Average Humidity 80    
Maximum Humidity 100    
Minimum Humidity 59    
Precipitation  
Precipitation 0.00 in 0.07 in 0.34 in (2002)
Month to date precipitation 0.39 2.03  
Year to date precipitation 23.39 32.86  
Sea Level Pressure  
Sea Level Pressure 30.17 in    
Wind  
Wind Speed 8 mph (SW)    
Max Wind Speed 17 mph    
Max Gust Speed 24 mph    
Visibility 2 miles    
Events Fog    
T = Trace of Precipitation, MM = Missing Value Source: NWS Daily Summary

Daily Weather History Graph

Daily Weather History Graph

Search for Another Location

Airport:

Trip Planner

Search our weather history database for the weather conditions in past years. The results will help you decide how hot, cold, wet, or windy it might be!

Date:

Astronomy

Nov. 21, 2012 Rise Set
Actual Time 6:50 AM CST 4:24 PM CST
Civil Twilight 6:19 AM CST 4:55 PM CST
Nautical Twilight 5:45 AM CST 5:29 PM CST
Astronomical Twilight 5:11 AM CST 6:02 PM CST
Moon 12:47 PM CST 12:01 AM CST
Length of Visible Light 10h 35m
Length of Day
9h 33m
First Quarter, 62% of the Moon is Illuminated
Nov 21
First Quarter
Nov 28
Full
Dec 6
Last Quarter
Dec 13
New
Dec 19
First Quarter

Hourly Weather History & Observations

Time (CST) Temp. Windchill Dew Point Humidity Pressure Visibility Wind Dir Wind Speed Gust Speed Precip Events Conditions
12:14 AM 35.6 °F - 33.8 °F 93% 30.18 in 0.2 mi Calm Calm - N/A Fog Fog
12:38 AM 32.0 °F 28.7 °F 32.0 °F 100% 30.17 in 0.2 mi WSW 3.5 mph - N/A Fog Fog
12:52 AM 32.0 °F 28.7 °F 32.0 °F 100% 30.19 in 0.2 mi WSW 3.5 mph - N/A Fog Fog
1:44 AM 37.4 °F 34.9 °F 37.4 °F 100% 30.16 in 0.5 mi WSW 3.5 mph - N/A Fog Fog
1:52 AM 37.9 °F - 37.9 °F 100% 30.18 in 0.2 mi Calm Calm - N/A Fog Fog
2:19 AM 35.6 °F - 35.6 °F 100% 30.17 in 0.2 mi Calm Calm - N/A Fog Fog
2:41 AM 33.8 °F - 32.0 °F 93% 30.17 in 0.5 mi Calm Calm - N/A Fog Fog
2:52 AM 34.0 °F - 32.0 °F 92% 30.19 in 0.5 mi Calm Calm - N/A Fog Fog
2:59 AM 33.8 °F 30.8 °F 32.0 °F 93% 30.17 in 0.5 mi West 3.5 mph - N/A Fog Fog
3:07 AM 32.0 °F - 32.0 °F 100% 30.17 in 0.2 mi Calm Calm - N/A Fog Fog
3:52 AM 30.0 °F - 30.0 °F 100% 30.20 in 0.2 mi Calm Calm - N/A Fog Light Freezing Fog
4:12 AM 30.2 °F - 30.2 °F 100% 30.17 in 0.5 mi Calm Calm - N/A Fog Light Freezing Fog
4:21 AM 30.2 °F - 30.2 °F 100% 30.17 in 0.2 mi Calm Calm - N/A Fog Light Freezing Fog
4:38 AM 33.8 °F - 33.8 °F 100% 30.18 in 0.5 mi Calm Calm - N/A Fog Fog
4:50 AM 32.0 °F - 32.0 °F 100% 30.18 in 0.2 mi Calm Calm - N/A Fog Fog
4:52 AM 32.0 °F - 32.0 °F 100% 30.21 in 0.2 mi Calm Calm - N/A Fog Fog
5:16 AM 33.8 °F - 33.8 °F 100% 30.18 in 0.2 mi Calm Calm - N/A Fog Fog
5:52 AM 33.1 °F 28.7 °F 33.1 °F 100% 30.21 in 0.2 mi SW 4.6 mph - N/A Fog Fog
6:03 AM 35.6 °F 32.8 °F 33.8 °F 93% 30.18 in 0.2 mi SW 3.5 mph - N/A Fog Fog
6:10 AM 35.6 °F 32.8 °F 33.8 °F 93% 30.18 in 0.2 mi SW 3.5 mph - N/A Fog Fog
6:52 AM 36.0 °F 33.3 °F 35.1 °F 97% 30.23 in 0.2 mi WSW 3.5 mph - N/A Fog Fog
6:59 AM 35.6 °F 31.7 °F 35.6 °F 100% 30.20 in 0.2 mi WSW 4.6 mph - N/A Fog Fog
7:11 AM 35.6 °F 31.7 °F 35.6 °F 100% 30.20 in 0.2 mi Variable 4.6 mph - N/A Fog Fog
7:52 AM 36.0 °F 32.1 °F 36.0 °F 100% 30.23 in 0.2 mi SW 4.6 mph - N/A Fog Fog
8:52 AM 39.0 °F 34.8 °F 39.0 °F 100% 30.22 in 0.2 mi SW 5.8 mph - N/A Fog Fog
9:15 AM 42.8 °F 39.3 °F 42.8 °F 100% 30.20 in 1.0 mi SW 5.8 mph - N/A   Mist
9:22 AM 42.8 °F 39.3 °F 42.8 °F 100% 30.20 in 2.0 mi SW 5.8 mph - N/A   Scattered Clouds
9:27 AM 44.6 °F 41.4 °F 42.8 °F 93% 30.20 in 3.0 mi SW 5.8 mph - N/A   Scattered Clouds
9:52 AM 48.0 °F - 43.0 °F 83% 30.23 in 5.0 mi SW 5.8 mph - N/A   Haze
10:52 AM 52.0 °F - 45.0 °F 77% 30.22 in 4.0 mi SSW 13.8 mph - N/A   Haze
11:52 AM 54.0 °F - 45.0 °F 72% 30.19 in 5.0 mi SW 11.5 mph - N/A   Haze
12:52 PM 57.0 °F - 44.1 °F 62% 30.17 in 6.0 mi WSW 9.2 mph - N/A   Haze
1:52 PM 57.0 °F - 44.1 °F 62% 30.13 in 5.0 mi SSW 9.2 mph - N/A   Haze
2:52 PM 55.9 °F - 41.0 °F 57% 30.12 in 7.0 mi SSW 13.8 mph - N/A   Clear
3:52 PM 54.0 °F - 39.9 °F 59% 30.12 in 7.0 mi SSW 12.7 mph - N/A   Clear
4:52 PM 50.0 °F - 42.1 °F 74% 30.12 in 6.0 mi South 10.4 mph - N/A   Haze
5:52 PM 48.0 °F - 42.1 °F 80% 30.12 in 5.0 mi South 11.5 mph - N/A   Haze
6:52 PM 48.0 °F - 43.0 °F 83% 30.12 in 4.0 mi South 11.5 mph - N/A   Haze
7:52 PM 48.0 °F - 44.1 °F 86% 30.12 in 4.0 mi South 11.5 mph - N/A   Clear
8:52 PM 48.0 °F - 43.0 °F 83% 30.09 in 5.0 mi South 11.5 mph - N/A   Haze
9:52 PM 48.0 °F - 42.1 °F 80% 30.09 in 5.0 mi SSW 11.5 mph - N/A   Haze
10:52 PM 48.0 °F - 44.1 °F 86% 30.07 in 5.0 mi SSW 13.8 mph - N/A   Clear
11:52 PM 48.9 °F - 45.0 °F 86% 30.06 in 4.0 mi SSW 13.8 mph - N/A   Clear